User: anonymous   Login
Location: ?ejeti?ky
(50.4060°N, 14.9016°E)
Time: 10:10:50
(UTC+00:00)
Language:

STARLINK-1364 - Orbit

View from above orbital plane
View from above orbital plane
View from above satellite
View from above satellite

Ground track
Ground track

The orbit data is extracted from the following two-line orbital elements,

1 45589C 20025BL  20227.12026278 -.01117755  00000-0 -50490-1 0  2273
2 45589  53.0007 206.2393 0001248  80.5328 357.9162 15.21563383    15
Epoch (UTC): 14 August 2020 02:53:10
Eccentricity: 0.0001248
inclination: 53.0007°
perigee height: 500 km
apogee height: 502 km
right ascension of ascending node: 206.2393°
argument of perigee: 80.5328°
revolutions per day: 15.21563383
mean anomaly at epoch: 357.9162°
orbit number at epoch: 1

The dashed part of the orbit path shows where the satellite is in the earth's shadow,  

DLR